Zurück zum Katalog

COSMOS 2378

AktivMilitärPO
NORAD 26818·PAYLOAD·🇷🇺 Russia

Gestartet Jun 8, 2001 von Plesetsk Cosmodrome

Loading…

Nächste Überflüge (nächste 24 Stunden)

TLE

AktuellSource: Space-Track

Epoche: Sep 14, 2026, 23:38 UTC

1 26818U 01023A   26257.98515576  .00000056  00000-0  43520-4 0  9998
2 26818  82.9299 154.9406 0033383 155.6245 232.5744 13.74164346267172

Verfolge COSMOS 2378 in Echtzeit mit AllMySat

Download on the App Store